Regional Weather Roundup
Issued by NWS Binghamton, NY

Home | Current Version | Previous Version | Text Only | Print | Product List | Glossary On
Versions: 1 2 3 4 5 6 7 8 9 10 11 12 13 14 15 16 17 18 19 20 21 22 23 24 25 26 27 28 29 30 31 32 33 34 35 36 37 38 39 40 41 42 43 44 45 46 47 48 49 50
000
ASUS41 KBGM 171710
RWRBGM

REGIONAL WEATHER ROUNDUP
NATIONAL WEATHER SERVICE BINGHAMTON NY
1200 PM EST SUN DEC 17 2017

Note: "fair" indicates few or no clouds below 12,000 feet with no
significant weather and/or obstructions to visibility.

* = Station(s) that does not report precipitation, such as rain,
snow, etc, also no thunder or fog.

NYZ009-015>018-022>025-036-037-044>046-055>057-062-171800
...Central New York...

CITY           SKY/WX    TMP DP  RH WIND       PRES   REMARKS
Binghamton     CLOUDY    21  14  74 NE6       30.19F WCI  13
Cortland       CLOUDY    23  18  80 CALM      30.24F
Dansville      CLOUDY    22  14  71 CALM      30.24F
Elmira         CLOUDY    27  18  69 E5        30.23F WCI  22
Seneca Falls   CLOUDY    23  16  74 CALM      30.29F
Ithaca         PTSUNNY   25  18  74 N6        30.24F WCI  18
Hornell        CLOUDY    21  18  86 NW5       30.25F WCI  15
Monticello     CLOUDY    29  20  69 NW5       30.20F WCI  24
Penn Yan       CLOUDY    23  14  68 CALM      30.25F
Rome           SUNNY     14   9  80 CALM      30.32F
Sidney         PTSUNNY   25  16  68 CALM      30.25F
Syracuse       CLOUDY    22  15  75 CALM      30.30F
$$

PAZ038>040-043-044-047-048-072-171800
...Northeast Pennsylvania...

CITY           SKY/WX    TMP DP  RH WIND       PRES   REMARKS
Hazleton       MOSUNNY   37  28  70 CALM      30.21F
Scranton       CLOUDY    30  22  72 CALM      30.22F
$$
&&
KEY
WCI = Wind Chill Index
VSB = Visibility
HX  = Heat Index
$$



USA.gov is the U.S. government's official web portal to all federal, state and local government web resources and services.